This demonstration page uses our WeatherBlox Daily Observations layout. Learn more.

Left ArrowRight Arrow

39.01783, -85.05884

Hourly Observations for October 29, 2015

Temp ( °F °C ) Dew Point ( °F °C ) Humidity (%) Winds ( mph kmh ) Pressure ( in mb ) Visibility ( mi km ) Precip ( " mm )
12:13 am 00:13 Cloudy with Light Rain 55 13 52 11 88 88 SW 9 15 29.65 1004 9 14 N/A
12:43 am 00:43 Cloudy with Light Rain 55 13 52 11 88 88 WSW 14 22 29.68 1005 10 16 0.02 0.51
12:52 am 00:52 Cloudy 55 12.8 50 10 83 83 WSW 10 17 29.65 1004 10 16 0.02 0.51
1:52 am 01:52 Cloudy 54 12.2 48 8.9 80 80 W 10 17 29.66 1004 10 16 N/A
2:52 am 02:52 Mostly Cloudy 48 8.9 34 1.1 58 58 WNW 17 28 29.72 1006 10 16 N/A
3:52 am 03:52 Clear 46 7.8 35 1.7 66 66 WSW 3 6 29.72 1006 10 16 N/A
4:52 am 04:52 Clear 42 5.6 36 2.2 79 79 SSW 6 9 29.70 1006 10 16 N/A
5:52 am 05:52 Clear 44 6.7 36 2.2 73 73 SW 6 9 29.72 1006 10 16 N/A
6:52 am 06:52 Mostly Clear 44 6.7 37 2.8 76 76 SSW 7 11 29.73 1007 10 16 N/A
7:52 am 07:52 Mostly Cloudy 47 8.3 38 3.3 71 71 SSW 12 19 29.73 1007 10 16 N/A
8:52 am 08:52 Partly Cloudy 48 8.9 39 3.9 71 71 SSW 9 15 29.74 1007 10 16 N/A
9:52 am 09:52 Mostly Cloudy 51 10.6 38 3.3 61 61 W 16 26 29.76 1008 10 16 N/A
10:52 am 10:52 Partly Cloudy 52 11.1 39 3.9 61 61 W 17 28 29.76 1008 10 16 N/A
11:52 am 11:52 Partly Cloudy 54 12.2 39 3.9 57 57 W 20 31 29.78 1008 10 16 N/A
12:52 pm 12:52 Partly Cloudy 54 12.2 33 0.6 45 45 W 23 37 29.79 1009 10 16 N/A
1:52 pm 13:52 Partly Cloudy 55 12.8 27 -2.8 34 34 W 16 26 29.79 1009 10 16 N/A
2:52 pm 14:52 Mostly Sunny 55 13 27 -3 33 33 W 18 30 29.80 1009 10 16 N/A
3:52 pm 15:52 Mostly Sunny 56 13.3 26 -3.3 32 32 W 17 28 29.82 1010 10 16 N/A
4:52 pm 16:52 Mostly Sunny 56 13.3 28 -2.2 34 34 WNW 14 22 29.84 1010 10 16 N/A
5:52 pm 17:52 Mostly Sunny 53 11.7 28 -2.2 38 38 W 13 20 29.86 1011 10 16 N/A
6:52 pm 18:52 Mostly Clear 49 9.4 30 -1.1 48 48 W 9 15 29.88 1012 10 16 N/A
7:52 pm 19:52 Mostly Clear 47 8.3 30 -1.1 52 52 W 5 7 29.90 1013 10 16 N/A
8:52 pm 20:52 Mostly Clear 47 8.3 33 0.6 59 59 NW 12 19 29.93 1014 10 16 N/A
9:52 pm 21:52 Cloudy 46 7.8 36 2.2 68 68 WNW 8 13 29.96 1015 10 16 N/A
10:52 pm 22:52 Cloudy 46 7.8 34 1.1 63 63 NW 8 13 29.98 1015 10 16 N/A
11:52 pm 23:52 Cloudy 44 6.7 35 1.7 71 71 W 6 9 30.00 1016 10 16 N/A

Powered by AerisWeather